DW0088 Weather Reports


Display with metric or nautical units.
time (UTC)temp
F
wind
direction
speed
MPH
gust
MPH
rain 1hr
in
rain 24hr
in
rain mn
in
humidity
%
barometer
mb
20260505211945 51 17 4.0 9.0 0.00 0.20 0.20 93 1008.5
20260505205945 51 21 5.0 8.0 0.00 0.20 0.20 93 1008.6
20260505204944 51 27 5.0 8.0 0.00 0.20 0.20 93 1008.6
20260505203945 51 21 5.0 8.0 0.00 0.20 0.20 93 1008.6
20260505202945 51 18 5.0 10.0 0.00 0.20 0.20 93 1008.6
20260505201944 52 18 6.0 11.0 0.00 0.21 0.20 92 1008.6
20260505200945 52 25 7.0 11.0 0.00 0.22 0.20 91 1008.5
20260505195946 52 35 7.0 12.0 0.00 0.24 0.20 91 1008.4
20260505194944 52 30 4.0 10.0 0.00 0.29 0.20 92 1008.4
20260505193946 52 31 5.0 9.0 0.00 0.31 0.20 92 1008.2
20260505192946 52 37 5.0 8.0 0.00 0.31 0.20 92 1008.1
20260505191945 52 29 3.0 6.0 0.00 0.31 0.20 92 1008.1
20260505190945 52 28 3.0 5.0 0.00 0.31 0.20 92 1008.1
20260505185945 52 25 3.0 6.0 0.00 0.31 0.20 92 1008.1
20260505184945 52 34 4.0 7.0 0.00 0.31 0.20 92 1008.1
20260505182945 52 30 4.0 9.0 0.00 0.31 0.20 92 1008.1
20260505180945 52 22 5.0 8.0 0.00 0.31 0.20 92 1008.0
20260505175947 52 12 4.0 7.0 0.00 0.31 0.20 93 1008.0
20260505174945 53 15 4.0 7.0 0.00 0.31 0.20 93 1008.0
20260505172945 53 19 4.0 7.0 0.00 0.31 0.20 93 1008.1
20260505171947 53 24 4.0 7.0 0.00 0.31 0.20 93 1008.1
20260505170945 53 28 5.0 9.0 0.00 0.31 0.20 93 1008.2
20260505165946 53 29 5.0 10.0 0.00 0.31 0.20 92 1008.3
20260505164945 53 34 6.0 9.0 0.00 0.31 0.20 93 1008.3
20260505163947 53 32 6.0 9.0 0.00 0.31 0.20 93 1008.4
20260505162945 53 32 5.0 8.0 0.00 0.31 0.20 93 1008.3
20260505161946 53 28 6.0 10.0 0.00 0.31 0.20 93 1008.3
20260505151947 53 16 5.0 9.0 0.00 0.31 0.20 93 1008.7
20260505150948 53 19 6.0 10.0 0.00 0.31 0.20 92 1008.6
20260505124946 51 24 5.0 9.0 0.00 0.31 0.20 97 1009.5
20260505123945 51 22 5.0 9.0 0.00 0.31 0.20 98 1009.6
20260505121946 51 18 5.0 9.0 0.00 0.31 0.20 98 1009.6
20260505120945 50 21 5.0 10.0 0.00 0.31 0.20 98 1009.7
20260505115948 50 9 5.0 9.0 0.00 0.31 0.20 98 1009.8
20260505114946 50 35 6.0 9.0 0.00 0.31 0.20 98 1009.8
20260505113946 50 24 5.0 10.0 0.00 0.31 0.20 98 1009.8
20260505111946 50 26 6.0 11.0 0.00 0.31 0.20 98 1009.9
20260505110947 50 20 4.0 8.0 0.00 0.31 0.20 98 1009.9
20260505100947 49 36 7.0 12.0 0.01 0.31 0.20 98 1010.2
20260505095946 49 48 7.0 13.0 0.01 0.31 0.20 99 1010.2
20260505094946 49 34 6.0 10.0 0.01 0.31 0.20 98 1010.2
20260505092946 49 32 6.0 12.0 0.02 0.31 0.20 98 1010.2
20260505090946 49 31 6.0 9.0 0.01 0.31 0.19 99 1010.2
20260505085947 49 27 5.0 11.0 0.01 0.31 0.19 98 1010.2
20260505084947 49 31 6.0 9.0 0.01 0.31 0.19 98 1010.2
20260505083947 49 29 7.0 13.0 0.00 0.30 0.18 98 1010.2
20260505081946 49 32 5.0 8.0 0.01 0.30 0.18 98 1010.1
20260505080946 49 39 7.0 12.0 0.01 0.30 0.18 98 1010.1
20260505075947 49 35 7.0 11.0 0.01 0.30 0.18 98 1010.2
20260505074946 49 32 6.0 10.0 0.01 0.30 0.18 98 1010.2
20260505073947 49 29 6.0 12.0 0.01 0.30 0.18 99 1010.2
20260505071946 49 26 7.0 16.0 0.00 0.29 0.17 99 1010.2
20260505070947 49 30 7.0 13.0 0.00 0.29 0.17 99 1010.2
20260505065947 49 21 7.0 13.0 0.00 0.29 0.17 99 1010.1
20260505064947 49 11 7.0 13.0 0.00 0.29 0.17 99 1010.1
20260505063947 50 20 7.0 11.0 0.00 0.29 0.17 99 1010.2
20260505062947 50 21 7.0 13.0 0.00 0.29 0.17 99 1010.2
20260505061947 50 19 5.0 12.0 0.01 0.29 0.17 99 1010.2
20260505060947 50 35 6.0 9.0 0.01 0.29 0.17 99 1010.2
20260505055947 50 35 8.0 13.0 0.02 0.29 0.17 99 1010.1
20260505054947 51 34 6.0 12.0 0.02 0.29 0.17 99 1010.1
20260505053946 50 28 6.0 11.0 0.02 0.29 0.17 99 1010.1
20260505052947 50 20 6.0 10.0 0.03 0.29 0.17 99 1010.0
20260505051947 51 21 6.0 11.0 0.03 0.28 0.17 99 1010.0
20260505050948 51 4 5.0 9.0 0.03 0.28 0.16 99 1009.9
20260505040947 51 28 7.0 13.0 0.02 0.24 0.13 99 1009.7
20260505035948 51 25 6.0 12.0 0.02 0.24 0.12 99 1009.8
20260505034949 52 18 6.0 10.0 0.02 0.24 0.12 99 1009.8
20260505033948 52 19 6.0 10.0 0.01 0.23 0.11 99 1009.8
20260505032948 52 16 6.0 9.0 0.00 0.22 0.10 99 1009.8
20260505031948 52 16 6.0 11.0 0.00 0.22 0.10 99 1009.8
20260505024948 53 10 6.0 12.0 0.00 0.22 0.10 99 1010.0
20260505023948 53 12 8.0 12.0 0.00 0.22 0.10 99 1010.1
20260505022948 53 16 7.0 11.0 0.00 0.22 0.10 99 1010.1
20260505021948 53 11 6.0 12.0 0.00 0.22 0.10 99 1010.1
20260505020947 53 1 9.0 13.0 0.00 0.22 0.10 99 1010.0
20260505014948 54 356 8.0 13.0 0.02 0.22 0.10 99 1009.9
20260505013947 54 356 9.0 15.0 0.02 0.22 0.10 99 1010.0
20260505012948 54 348 10.0 14.0 0.02 0.22 0.10 99 1010.1
20260505011947 55 3 7.0 13.0 0.02 0.22 0.10 99 1010.1
20260505010948 56 5 7.0 11.0 0.03 0.22 0.10 99 1010.2
20260505004949 57 13 4.0 7.0 0.02 0.20 0.09 99 1010.2
20260505003947 57 4 3.0 5.0 0.02 0.20 0.09 99 1010.2
20260505002948 57 334 4.0 6.0 0.03 0.20 0.09 99 1010.3
20260505001948 57 326 5.0 7.0 0.04 0.20 0.08 99 1010.3
20260505000947 57 336 6.0 9.0 0.05 0.19 0.07 99 1010.3
20260504235949 57 304 5.0 8.0 0.05 0.18 0.06 99 1010.4
20260504234948 57 299 2.0 5.0 0.06 0.18 0.06 99 1010.4
20260504233948 57 257 1.0 3.0 0.06 0.18 0.06 99 1010.5
20260504232949 57 250 1.0 3.0 0.05 0.17 0.05 98 1010.7
20260504231948 57 239 1.0 4.0 0.04 0.16 0.04 99 1010.7
20260504230948 57 246 1.0 3.0 0.02 0.14 0.02 98 1010.8
20260504225948 57 247 1.0 4.0 0.02 0.13 0.02 98 1010.9
20260504224948 57 244 0.0 2.0 0.01 0.13 0.01 98 1010.9
20260504223948 57 251 0.0 1.0 0.01 0.13 0.01 98 1011.0
20260504222948 57 253 0.0 1.0 0.00 0.13 0.00 98 1011.2
20260504220948 57 219 0.0 1.0 0.01 0.13 0.00 98 1011.3
20260504214948 58 238 0.0 3.0 0.01 0.13 0.13 98 1011.4
20260504213948 58 191 0.0 3.0 0.01 0.13 0.13 98 1011.6
20260504212948 58 178 1.0 3.0 0.01 0.13 0.13 98 1011.7